| time (UTC) | temp C | wind direction | speed KPH | gust KPH | rain 1hr cm | rain 24hr cm | rain mn cm | humidity % | barometer mb |
| 20260508154654 | 12 | 270 | 12.9 | 35.4 | 0.00 | 0.00 | 0.00 | 59 | 999.8 |
| 20260508154145 | 12 | 248 | 22.5 | 35.4 | 0.00 | 0.00 | 0.00 | 60 | 999.8 |
| 20260508153635 | 12 | 270 | 8.0 | 33.8 | 0.00 | 0.00 | 0.00 | 60 | 999.9 |
| 20260508153125 | 11 | 225 | 16.1 | 29.0 | 0.00 | 0.00 | 0.00 | 61 | 999.8 |
| 20260508152104 | 12 | 225 | 12.9 | 27.4 | 0.00 | 0.00 | 0.00 | 61 | 999.8 |
| 20260508151553 | 11 | 293 | 6.4 | 25.7 | 0.00 | 0.00 | 0.00 | 62 | 1000.1 |
| 20260508151043 | 12 | 135 | 0.0 | 24.1 | 0.00 | 0.00 | 0.00 | 63 | 999.9 |
| 20260508150537 | 11 | 270 | 8.0 | 24.1 | 0.00 | 0.00 | 0.00 | 62 | 1000.2 |
| 20260508150023 | 11 | 270 | 4.8 | 24.1 | 0.00 | 0.00 | 0.00 | 63 | 1000.1 |
| 20260508145513 | 11 | 270 | 12.9 | 24.1 | 0.00 | 0.00 | 0.00 | 62 | 1000.2 |
| 20260508145003 | 11 | 248 | 8.0 | 25.7 | 0.00 | 0.00 | 0.00 | 63 | 1000.5 |
| 20260508144453 | 11 | 248 | 4.8 | 25.7 | 0.00 | 0.00 | 0.00 | 62 | 1000.4 |
| 20260508143433 | 11 | 270 | 11.3 | 33.8 | 0.00 | 0.00 | 0.00 | 64 | 1000.3 |
| 20260508142922 | 11 | 270 | 11.3 | 38.6 | 0.00 | 0.00 | 0.00 | 63 | 1000.3 |
| 20260508142412 | 10 | 248 | 14.5 | 38.6 | 0.00 | 0.00 | 0.00 | 63 | 1000.5 |
| 20260508141903 | 10 | 270 | 8.0 | 27.4 | 0.00 | 0.00 | 0.00 | 63 | 1000.4 |
| 20260508141352 | 11 | 248 | 3.2 | 29.0 | 0.00 | 0.00 | 0.00 | 64 | 1000.7 |
| 20260508140332 | 10 | 248 | 9.7 | 27.4 | 0.00 | 0.00 | 0.00 | 64 | 1000.5 |
| 20260508135823 | 10 | 270 | 16.1 | 27.4 | 0.00 | 0.00 | 0.00 | 64 | 1000.2 |
| 20260508135312 | 10 | 270 | 3.2 | 29.0 | 0.00 | 0.00 | 0.00 | 65 | 1000.1 |
| 20260508134802 | 10 | 293 | 12.9 | 29.0 | 0.00 | 0.00 | 0.00 | 64 | 1000.3 |
| 20260508134252 | 10 | 225 | 4.8 | 32.2 | 0.00 | 0.00 | 0.00 | 64 | 1000.5 |
| 20260508133233 | 9 | 248 | 1.6 | 24.1 | 0.00 | 0.00 | 0.00 | 66 | 1000.4 |
| 20260508132721 | 9 | 270 | 8.0 | 29.0 | 0.00 | 0.00 | 0.00 | 66 | 1000.4 |
| 20260508132211 | 9 | 293 | 6.4 | 29.0 | 0.00 | 0.00 | 0.00 | 67 | 1000.3 |
| 20260508131701 | 9 | 270 | 12.9 | 33.8 | 0.00 | 0.00 | 0.00 | 65 | 1000.5 |
| 20260508130648 | 9 | 270 | 3.2 | 32.2 | 0.00 | 0.00 | 0.00 | 67 | 1000.2 |
| 20260508125621 | 9 | 203 | 6.4 | 25.7 | 0.00 | 0.00 | 0.00 | 67 | 1000.1 |
| 20260508125111 | 8 | 225 | 14.5 | 25.7 | 0.00 | 0.00 | 0.00 | 67 | 999.9 |
| 20260508124601 | 8 | 248 | 4.8 | 27.4 | 0.00 | 0.00 | 0.00 | 67 | 999.9 |
| 20260508124051 | 8 | 270 | 12.9 | 27.4 | 0.00 | 0.00 | 0.00 | 67 | 999.9 |
| 20260508123540 | 8 | 293 | 6.4 | 24.1 | 0.00 | 0.00 | 0.00 | 67 | 999.7 |
| 20260508123030 | 8 | 248 | 1.6 | 20.9 | 0.00 | 0.00 | 0.00 | 68 | 999.9 |
| 20260508122520 | 8 | 270 | 6.4 | 24.1 | 0.00 | 0.00 | 0.00 | 68 | 999.9 |
| 20260508121500 | 8 | 225 | 12.9 | 25.7 | 0.00 | 0.00 | 0.00 | 67 | 999.4 |
| 20260508120953 | 8 | 270 | 12.9 | 25.7 | 0.00 | 0.00 | 0.00 | 67 | 999.7 |
| 20260508120439 | 8 | 248 | 12.9 | 22.5 | 0.00 | 0.00 | 0.00 | 67 | 999.4 |
| 20260508115419 | 7 | 293 | 9.7 | 20.9 | 0.00 | 0.00 | 0.00 | 69 | 999.4 |
| 20260508114359 | 7 | 270 | 3.2 | 25.7 | 0.00 | 0.00 | 0.00 | 69 | 999.0 |
| 20260508113849 | 7 | 225 | 8.0 | 25.7 | 0.00 | 0.00 | 0.00 | 69 | 998.8 |
| 20260508113339 | 7 | 248 | 3.2 | 20.9 | 0.00 | 0.00 | 0.00 | 69 | 998.8 |
| 20260508111809 | 7 | 270 | 3.2 | 24.1 | 0.00 | 0.00 | 0.00 | 70 | 998.7 |
| 20260508111259 | 7 | 270 | 4.8 | 22.5 | 0.00 | 0.00 | 0.00 | 69 | 998.6 |
| 20260508110748 | 7 | 270 | 6.4 | 20.9 | 0.00 | 0.00 | 0.00 | 69 | 998.5 |
| 20260508110240 | 7 | 270 | 3.2 | 17.7 | 0.00 | 0.00 | 0.00 | 70 | 998.3 |
| 20260508105728 | 7 | 293 | 4.8 | 22.5 | 0.00 | 0.00 | 0.00 | 70 | 998.5 |
| 20260508105218 | 7 | 248 | 11.3 | 29.0 | 0.00 | 0.00 | 0.00 | 69 | 998.3 |
| 20260508104707 | 7 | 270 | 6.4 | 29.0 | 0.00 | 0.00 | 0.00 | 69 | 998.3 |
| 20260508104157 | 7 | 270 | 3.2 | 20.9 | 0.00 | 0.00 | 0.00 | 69 | 998.1 |
| 20260508103648 | 7 | 225 | 3.2 | 20.9 | 0.00 | 0.00 | 0.00 | 69 | 998.1 |
| 20260508103138 | 7 | 248 | 6.4 | 22.5 | 0.00 | 0.00 | 0.00 | 68 | 998.0 |
| 20260508102118 | 7 | 270 | 9.7 | 22.5 | 0.00 | 0.00 | 0.00 | 67 | 997.8 |
| 20260508101608 | 7 | 270 | 4.8 | 29.0 | 0.00 | 0.00 | 0.00 | 68 | 997.6 |
| 20260508101057 | 7 | 270 | 3.2 | 29.0 | 0.00 | 0.00 | 0.00 | 69 | 997.6 |
| 20260508100036 | 7 | 248 | 3.2 | 24.1 | 0.00 | 0.00 | 0.00 | 68 | 997.6 |
| 20260508095526 | 7 | 270 | 3.2 | 22.5 | 0.00 | 0.00 | 0.00 | 68 | 997.6 |
| 20260508095016 | 7 | 248 | 3.2 | 22.5 | 0.00 | 0.00 | 0.00 | 68 | 997.4 |
| 20260508093956 | 7 | 248 | 9.7 | 24.1 | 0.00 | 0.00 | 0.00 | 68 | 997.4 |
| 20260508093446 | 7 | 248 | 11.3 | 22.5 | 0.00 | 0.00 | 0.00 | 68 | 997.4 |
| 20260508092936 | 7 | 248 | 11.3 | 22.5 | 0.00 | 0.00 | 0.00 | 69 | 997.6 |
| 20260508092426 | 7 | 203 | 3.2 | 22.5 | 0.00 | 0.00 | 0.00 | 71 | 997.5 |
| 20260508091916 | 8 | 225 | 4.8 | 17.7 | 0.00 | 0.00 | 0.00 | 71 | 997.2 |
| 20260508091406 | 8 | 225 | 3.2 | 24.1 | 0.00 | 0.00 | 0.00 | 72 | 997.4 |
| 20260508090856 | 8 | 293 | 6.4 | 24.1 | 0.00 | 0.00 | 0.00 | 72 | 997.2 |
| 20260508090345 | 8 | 248 | 8.0 | 24.1 | 0.00 | 0.00 | 0.00 | 73 | 997.0 |
| 20260508085835 | 8 | 248 | 6.4 | 22.5 | 0.00 | 0.00 | 0.00 | 74 | 997.1 |
| 20260508085326 | 8 | 225 | 3.2 | 25.7 | 0.00 | 0.00 | 0.00 | 75 | 997.3 |
| 20260508084815 | 8 | 225 | 4.8 | 25.7 | 0.00 | 0.00 | 0.00 | 76 | 997.4 |
| 20260508084305 | 8 | 248 | 1.6 | 17.7 | 0.00 | 0.00 | 0.00 | 78 | 997.2 |
| 20260508083755 | 8 | 248 | 3.2 | 22.5 | 0.00 | 0.00 | 0.00 | 78 | 997.1 |
| 20260508083244 | 8 | 248 | 4.8 | 22.5 | 0.00 | 0.00 | 0.00 | 79 | 997.3 |
| 20260508082734 | 8 | 270 | 4.8 | 20.9 | 0.00 | 0.00 | 0.00 | 80 | 997.3 |
| 20260508082224 | 8 | 270 | 3.2 | 22.5 | 0.00 | 0.00 | 0.00 | 80 | 997.2 |
| 20260508081715 | 8 | 225 | 6.4 | 22.5 | 0.00 | 0.00 | 0.00 | 80 | 997.0 |
| 20260508081205 | 8 | 248 | 1.6 | 22.5 | 0.00 | 0.00 | 0.00 | 80 | 997.1 |
| 20260508080655 | 8 | 293 | 11.3 | 27.4 | 0.00 | 0.00 | 0.00 | 80 | 997.2 |
| 20260508075634 | 9 | 248 | 6.4 | 22.5 | 0.00 | 0.00 | 0.00 | 81 | 997.1 |
| 20260508075124 | 9 | 248 | 6.4 | 22.5 | 0.00 | 0.00 | 0.00 | 82 | 997.4 |
| 20260508074614 | 9 | 270 | 3.2 | 17.7 | 0.00 | 0.00 | 0.00 | 83 | 996.9 |
| 20260508073554 | 9 | 225 | 3.2 | 17.7 | 0.00 | 0.00 | 0.00 | 83 | 997.1 |
| 20260508073046 | 9 | 270 | 1.6 | 14.5 | 0.00 | 0.00 | 0.00 | 83 | 997.2 |
| 20260508072533 | 9 | 248 | 1.6 | 17.7 | 0.00 | 0.00 | 0.00 | 83 | 997.3 |
| 20260508071003 | 9 | 270 | 6.4 | 17.7 | 0.00 | 0.00 | 0.00 | 82 | 997.1 |
| 20260508070453 | 9 | 248 | 0.0 | 25.7 | 0.00 | 0.00 | 0.00 | 82 | 997.1 |
| 20260508065943 | 10 | 225 | 1.6 | 25.7 | 0.00 | 0.00 | 0.00 | 81 | 997.4 |
| 20260508065433 | 10 | 270 | 1.6 | 17.7 | 0.00 | 0.00 | 0.00 | 81 | 997.5 |
| 20260508064923 | 10 | 225 | 4.8 | 25.7 | 0.00 | 0.00 | 0.00 | 81 | 997.1 |
| 20260508064413 | 10 | 270 | 4.8 | 25.7 | 0.00 | 0.00 | 0.00 | 80 | 997.3 |
| 20260508063903 | 10 | 270 | 3.2 | 20.9 | 0.00 | 0.00 | 0.00 | 81 | 997.3 |
| 20260508063145 | 10 | 225 | 6.4 | 0.0 | 0.00 | 0.00 | 0.00 | 81 | 997.0 |
| 20260508062802 | 10 | 203 | 6.4 | 25.7 | 0.00 | 2.36 | 0.00 | 81 | 996.9 |
| 20260508062251 | 10 | 270 | 4.8 | 25.7 | 0.00 | 2.36 | 0.00 | 81 | 997.1 |
| 20260508061741 | 10 | 248 | 9.7 | 22.5 | 0.00 | 2.36 | 0.00 | 81 | 997.2 |
| 20260508061231 | 10 | 248 | 12.9 | 22.5 | 0.00 | 2.36 | 0.00 | 81 | 997.1 |
| 20260508060721 | 10 | 248 | 6.4 | 17.7 | 0.00 | 2.36 | 0.00 | 81 | 997.0 |
| 20260508060211 | 10 | 248 | 6.4 | 20.9 | 0.00 | 2.36 | 0.00 | 81 | 997.1 |
| 20260508055701 | 10 | 270 | 4.8 | 20.9 | 0.00 | 2.36 | 0.00 | 80 | 997.0 |
| 20260508055150 | 10 | 248 | 4.8 | 17.7 | 0.00 | 2.36 | 0.00 | 81 | 997.1 |
| 20260508054641 | 10 | 270 | 0.0 | 17.7 | 0.00 | 2.36 | 0.00 | 80 | 997.0 |
| 20260508054130 | 10 | 225 | 4.8 | 17.7 | 0.00 | 2.36 | 0.00 | 80 | 997.2 |
| 20260508053620 | 10 | 270 | 8.0 | 17.7 | 0.00 | 2.36 | 0.00 | 80 | 997.3 |
| 20260508053110 | 10 | 248 | 3.2 | 12.9 | 0.00 | 2.36 | 0.00 | 80 | 997.5 |
| 20260508052600 | 10 | 180 | 1.6 | 20.9 | 0.00 | 2.36 | 0.00 | 79 | 997.3 |
| 20260508052050 | 10 | 270 | 6.4 | 27.4 | 0.00 | 2.36 | 0.00 | 77 | 997.3 |
| 20260508051540 | 10 | 248 | 12.9 | 27.4 | 0.00 | 2.36 | 0.00 | 77 | 997.0 |
| 20260508050520 | 11 | 225 | 6.4 | 24.1 | 0.00 | 2.36 | 0.00 | 77 | 997.2 |
| 20260508050010 | 11 | 248 | 3.2 | 24.1 | 0.00 | 2.36 | 0.00 | 77 | 997.2 |
| 20260508045500 | 11 | 225 | 12.9 | 24.1 | 0.00 | 2.36 | 0.00 | 76 | 997.0 |
| 20260508044950 | 11 | 225 | 4.8 | 35.4 | 0.00 | 2.36 | 0.00 | 77 | 996.9 |
| 20260508044439 | 11 | 248 | 16.1 | 35.4 | 0.00 | 2.36 | 0.00 | 76 | 996.9 |
| 20260508043929 | 11 | 225 | 11.3 | 33.8 | 0.00 | 2.36 | 0.00 | 77 | 997.0 |
| 20260508043419 | 11 | 225 | 6.4 | 33.8 | 0.00 | 2.36 | 0.00 | 76 | 996.9 |
| 20260508042909 | 11 | 203 | 14.5 | 32.2 | 0.00 | 2.36 | 0.00 | 76 | 996.8 |
| 20260508042359 | 11 | 225 | 3.2 | 27.4 | 0.00 | 2.36 | 0.00 | 78 | 996.9 |
| 20260508041849 | 11 | 248 | 3.2 | 27.4 | 0.00 | 2.36 | 0.00 | 79 | 997.2 |
| 20260508041339 | 11 | 248 | 9.7 | 27.4 | 0.00 | 2.36 | 0.00 | 78 | 997.2 |
| 20260508040828 | 11 | 270 | 11.3 | 29.0 | 0.00 | 2.36 | 0.00 | 78 | 997.1 |
| 20260508040318 | 11 | 270 | 12.9 | 32.2 | 0.00 | 2.36 | 0.00 | 78 | 997.3 |
| 20260508035808 | 11 | 248 | 9.7 | 32.2 | 0.00 | 2.36 | 0.00 | 77 | 997.4 |
| 20260508035259 | 11 | 248 | 6.4 | 35.4 | 0.00 | 2.36 | 0.00 | 77 | 997.3 |
| 20260508034749 | 12 | 203 | 14.5 | 40.2 | 0.00 | 2.36 | 0.00 | 77 | 997.5 |
| 20260508034238 | 12 | 293 | 12.9 | 40.2 | 0.00 | 2.36 | 0.00 | 77 | 997.3 |
| 20260508033728 | 12 | 248 | 19.3 | 33.8 | 0.00 | 2.36 | 0.00 | 78 | 997.1 |
| 20260508032708 | 12 | 225 | 14.5 | 37.0 | 0.00 | 2.36 | 0.00 | 81 | 997.0 |
| 20260508032158 | 12 | 270 | 12.9 | 35.4 | 0.00 | 2.36 | 0.00 | 78 | 996.9 |
| 20260508031648 | 12 | 248 | 12.9 | 32.2 | 0.00 | 2.36 | 0.00 | 76 | 996.6 |
| 20260508031138 | 12 | 270 | 16.1 | 33.8 | 0.00 | 2.36 | 0.00 | 75 | 996.7 |
| 20260508030628 | 12 | 270 | 17.7 | 35.4 | 0.00 | 2.36 | 0.00 | 75 | 997.0 |
| 20260508030117 | 12 | 248 | 17.7 | 35.4 | 0.00 | 2.36 | 0.00 | 75 | 996.5 |
| 20260508025607 | 12 | 225 | 12.9 | 32.2 | 0.00 | 2.36 | 2.36 | 75 | 996.5 |
| 20260508024547 | 12 | 270 | 17.7 | 25.7 | 0.00 | 2.36 | 2.36 | 76 | 996.4 |
| 20260508024037 | 12 | 293 | 11.3 | 24.1 | 0.00 | 2.36 | 2.36 | 77 | 996.3 |
| 20260508023527 | 12 | 225 | 12.9 | 24.1 | 0.00 | 2.36 | 2.36 | 77 | 996.6 |
| 20260508023017 | 12 | 248 | 9.7 | 22.5 | 0.00 | 2.36 | 2.36 | 78 | 996.4 |
| 20260508022506 | 12 | 270 | 12.9 | 25.7 | 0.00 | 2.36 | 2.36 | 77 | 996.3 |
| 20260508021956 | 12 | 293 | 12.9 | 25.7 | 0.00 | 2.36 | 2.36 | 77 | 996.2 |
| 20260508021446 | 12 | 248 | 12.9 | 27.4 | 0.00 | 2.36 | 2.36 | 77 | 996.3 |
| 20260508020936 | 13 | 270 | 17.7 | 29.0 | 0.00 | 2.36 | 2.36 | 77 | 996.1 |
| 20260508020426 | 13 | 225 | 14.5 | 29.0 | 0.00 | 2.36 | 2.36 | 77 | 995.9 |
| 20260508015915 | 12 | 293 | 12.9 | 27.4 | 0.00 | 2.36 | 2.36 | 78 | 995.7 |
| 20260508015405 | 12 | 225 | 6.4 | 27.4 | 0.00 | 2.36 | 2.36 | 78 | 995.9 |
| 20260508014855 | 12 | 225 | 9.7 | 27.4 | 0.00 | 2.36 | 2.36 | 78 | 995.7 |
| 20260508014345 | 12 | 248 | 12.9 | 27.4 | 0.00 | 2.36 | 2.36 | 78 | 995.6 |
| 20260508013325 | 13 | 225 | 9.7 | 24.1 | 0.00 | 2.36 | 2.36 | 78 | 995.6 |
| 20260508012816 | 13 | 248 | 12.9 | 29.0 | 0.00 | 2.36 | 2.36 | 78 | 995.6 |
| 20260508012307 | 13 | 225 | 8.0 | 32.2 | 0.00 | 2.36 | 2.36 | 77 | 995.4 |
| 20260508011755 | 13 | 270 | 16.1 | 32.2 | 0.00 | 2.36 | 2.36 | 78 | 995.4 |
| 20260508010734 | 13 | 270 | 6.4 | 24.1 | 0.00 | 2.36 | 2.36 | 80 | 995.6 |
| 20260508005715 | 13 | 248 | 8.0 | 20.9 | 0.00 | 2.36 | 2.36 | 79 | 995.5 |
| 20260508005205 | 13 | 248 | 4.8 | 24.1 | 0.00 | 2.36 | 2.36 | 79 | 995.8 |
| 20260508004654 | 13 | 248 | 12.9 | 24.1 | 0.00 | 2.36 | 2.36 | 79 | 995.9 |
| 20260508004144 | 13 | 270 | 11.3 | 17.7 | 0.00 | 2.36 | 2.36 | 80 | 995.9 |
| 20260508003124 | 12 | 248 | 11.3 | 17.7 | 0.00 | 2.36 | 2.36 | 81 | 996.3 |
| 20260508002614 | 12 | 203 | 9.7 | 17.7 | 0.00 | 2.36 | 2.36 | 83 | 996.1 |
| 20260508002103 | 12 | 248 | 3.2 | 14.5 | 0.00 | 2.36 | 2.36 | 84 | 996.4 |
| 20260508001553 | 12 | 270 | 6.4 | 14.5 | 0.00 | 2.36 | 2.36 | 85 | 996.4 |
| 20260508000533 | 12 | 270 | 8.0 | 17.7 | 0.00 | 2.36 | 2.36 | 86 | 995.7 |
| 20260507235513 | 12 | 248 | 3.2 | 12.9 | 0.00 | 2.36 | 2.36 | 88 | 996.4 |
| 20260507235003 | 11 | 270 | 0.0 | 12.9 | 0.00 | 2.36 | 2.36 | 88 | 996.4 |
| 20260507234453 | 11 | 293 | 6.4 | 9.7 | 0.00 | 2.36 | 2.36 | 88 | 996.2 |
| 20260507233943 | 11 | 225 | 3.2 | 9.7 | 0.00 | 2.36 | 2.36 | 88 | 996.2 |
| 20260507233432 | 11 | 270 | 1.6 | 9.7 | 0.00 | 2.36 | 2.36 | 89 | 996.2 |
| 20260507232923 | 11 | 248 | 0.0 | 6.4 | 0.00 | 2.36 | 2.36 | 89 | 996.3 |
| 20260507232412 | 11 | 315 | 1.6 | 6.4 | 0.00 | 2.36 | 2.36 | 89 | 996.2 |
| 20260507231352 | 11 | 293 | 0.0 | 3.2 | 0.00 | 2.36 | 2.36 | 89 | 996.2 |
| 20260507225821 | 11 | 0 | 3.2 | 6.4 | 0.00 | 2.36 | 2.36 | 89 | 996.5 |
| 20260507225312 | 11 | 23 | 0.0 | 3.2 | 0.00 | 2.36 | 2.36 | 89 | 996.9 |
| 20260507224251 | 11 | 0 | 3.2 | 6.4 | 0.00 | 2.36 | 2.36 | 88 | 996.8 |
| 20260507223231 | 11 | 338 | 0.0 | 3.2 | 0.00 | 2.36 | 2.36 | 87 | 996.7 |
| 20260507222721 | 12 | 315 | 0.0 | 0.0 | 0.00 | 2.36 | 2.36 | 87 | 997.0 |
| 20260507222211 | 12 | 0 | 0.0 | 3.2 | 0.00 | 2.36 | 2.36 | 86 | 996.9 |
| 20260507221701 | 12 | 0 | 0.0 | 3.2 | 0.00 | 2.36 | 2.36 | 86 | 996.4 |
| 20260507221151 | 12 | 0 | 1.6 | 6.4 | 0.00 | 2.36 | 2.36 | 85 | 996.4 |
| 20260507220642 | 12 | 315 | 1.6 | 6.4 | 0.00 | 2.36 | 2.36 | 85 | 996.9 |
| 20260507220130 | 12 | 45 | 1.6 | 6.4 | 0.00 | 2.36 | 2.36 | 85 | 996.8 |
| 20260507215620 | 12 | 315 | 1.6 | 6.4 | 0.00 | 2.36 | 2.36 | 84 | 997.2 |
| 20260507214602 | 12 | 293 | 0.0 | 6.4 | 0.00 | 2.36 | 2.36 | 84 | 997.0 |
| 20260507214050 | 12 | 270 | 1.6 | 6.4 | 0.00 | 2.36 | 2.36 | 84 | 997.1 |
| 20260507213030 | 12 | 315 | 0.0 | 0.0 | 0.00 | 2.36 | 2.36 | 83 | 996.9 |
| 20260507212010 | 12 | 0 | 0.0 | 0.0 | 0.00 | 2.36 | 2.36 | 82 | 996.5 |
| 20260507211459 | 12 | 315 | 0.0 | 0.0 | 0.00 | 2.36 | 2.36 | 81 | 996.2 |
| 20260507210949 | 12 | 293 | 0.0 | 0.0 | 0.00 | 2.36 | 2.36 | 81 | 996.5 |
| 20260507210440 | 12 | 248 | 0.0 | 0.0 | 0.00 | 2.36 | 2.36 | 81 | 996.5 |
| 20260507205929 | 12 | 248 | 0.0 | 14.5 | 0.00 | 2.36 | 2.36 | 81 | 996.2 |
| 20260507205426 | 12 | 270 | 0.0 | 20.9 | 0.00 | 2.36 | 2.36 | 80 | 996.2 |
| 20260507204909 | 12 | 225 | 3.2 | 20.9 | 0.00 | 2.36 | 2.36 | 80 | 996.1 |
| 20260507204358 | 12 | 270 | 9.7 | 22.5 | 0.03 | 2.36 | 2.36 | 79 | 995.8 |
| 20260507203339 | 12 | 248 | 9.7 | 20.9 | 0.03 | 2.36 | 2.36 | 81 | 994.9 |
| 20260507202829 | 13 | 293 | 8.0 | 24.1 | 0.03 | 2.36 | 2.36 | 81 | 994.8 |
| 20260507202319 | 13 | 158 | 11.3 | 24.1 | 0.03 | 2.36 | 2.36 | 81 | 994.7 |
| 20260507201808 | 12 | 225 | 8.0 | 17.7 | 0.03 | 2.36 | 2.36 | 84 | 994.5 |
| 20260507201258 | 12 | 248 | 9.7 | 25.7 | 0.05 | 2.36 | 2.36 | 85 | 994.9 |
| 20260507200238 | 12 | 270 | 9.7 | 12.9 | 0.05 | 2.36 | 2.36 | 87 | 995.3 |
| 20260507195727 | 12 | 315 | 1.6 | 12.9 | 0.05 | 2.36 | 2.36 | 89 | 995.3 |
| 20260507195218 | 12 | 293 | 0.0 | 20.9 | 0.05 | 2.36 | 2.36 | 89 | 995.0 |
| 20260507194717 | 12 | 270 | 6.4 | 20.9 | 0.03 | 2.34 | 2.34 | 87 | 995.1 |
| 20260507194157 | 12 | 270 | 12.9 | 17.7 | 0.03 | 2.34 | 2.34 | 86 | 994.7 |
| 20260507193647 | 13 | 293 | 6.4 | 17.7 | 0.03 | 2.34 | 2.34 | 86 | 993.7 |
| 20260507193137 | 13 | 270 | 0.0 | 17.7 | 0.03 | 2.34 | 2.34 | 85 | 993.8 |
| 20260507192627 | 13 | 225 | 6.4 | 17.7 | 0.03 | 2.34 | 2.34 | 84 | 992.7 |
| 20260507192117 | 13 | 180 | 4.8 | 17.7 | 0.03 | 2.34 | 2.34 | 83 | 992.8 |
| 20260507191607 | 13 | 203 | 6.4 | 22.5 | 0.00 | 2.31 | 2.31 | 84 | 992.7 |
| 20260507191056 | 13 | 225 | 9.7 | 24.1 | 0.00 | 2.31 | 2.31 | 83 | 992.6 |
| 20260507190548 | 13 | 248 | 14.5 | 25.7 | 0.00 | 2.31 | 2.31 | 82 | 993.0 |
| 20260507190037 | 14 | 225 | 12.9 | 32.2 | 0.00 | 2.31 | 2.31 | 81 | 993.5 |
| 20260507185527 | 14 | 225 | 9.7 | 32.2 | 0.00 | 2.31 | 2.31 | 81 | 993.9 |
| 20260507184511 | 14 | 203 | 6.4 | 24.1 | 0.00 | 2.31 | 2.31 | 83 | 993.9 |
| 20260507183955 | 14 | 248 | 9.7 | 24.1 | 0.00 | 2.31 | 2.31 | 83 | 993.7 |
| 20260507183446 | 14 | 180 | 12.9 | 25.7 | 0.00 | 2.31 | 2.31 | 83 | 993.1 |
| 20260507182936 | 14 | 225 | 11.3 | 25.7 | 0.00 | 2.31 | 2.31 | 82 | 993.3 |
| 20260507181913 | 14 | 180 | 12.9 | 29.0 | 0.00 | 2.31 | 2.31 | 81 | 993.9 |
| 20260507180856 | 14 | 203 | 9.7 | 27.4 | 0.00 | 2.31 | 2.31 | 81 | 994.3 |
| 20260507175835 | 15 | 248 | 14.5 | 29.0 | 0.00 | 2.31 | 2.31 | 79 | 995.5 |
| 20260507175325 | 15 | 270 | 16.1 | 29.0 | 0.00 | 2.31 | 2.31 | 81 | 995.7 |
| 20260507174815 | 15 | 225 | 12.9 | 25.7 | 0.00 | 2.31 | 2.31 | 82 | 995.4 |
| 20260507174305 | 15 | 135 | 12.9 | 25.7 | 0.00 | 2.31 | 2.31 | 81 | 995.2 |
| 20260507173755 | 15 | 248 | 12.9 | 25.7 | 0.00 | 2.31 | 2.31 | 80 | 994.2 |
| 20260507173245 | 15 | 248 | 12.9 | 25.7 | 0.00 | 2.31 | 2.31 | 81 | 994.6 |
| 20260507172224 | 15 | 248 | 12.9 | 29.0 | 0.00 | 2.31 | 2.31 | 81 | 994.9 |
| 20260507171204 | 16 | 248 | 17.7 | 32.2 | 0.00 | 2.31 | 2.31 | 83 | 994.3 |
| 20260507170654 | 16 | 248 | 17.7 | 29.0 | 0.00 | 2.31 | 2.31 | 84 | 994.8 |
| 20260507170144 | 16 | 270 | 16.1 | 29.0 | 0.00 | 2.31 | 2.31 | 86 | 994.9 |
| 20260507165634 | 16 | 203 | 12.9 | 29.0 | 0.00 | 2.31 | 2.31 | 86 | 995.0 |
| 20260507165124 | 17 | 248 | 12.9 | 27.4 | 0.00 | 2.31 | 2.31 | 83 | 994.7 |
| 20260507164614 | 17 | 248 | 11.3 | 37.0 | 0.00 | 2.31 | 2.31 | 84 | 994.6 |
| 20260507164104 | 17 | 225 | 9.7 | 37.0 | 0.00 | 2.31 | 2.31 | 83 | 995.4 |
| 20260507163553 | 17 | 225 | 20.9 | 37.0 | 0.00 | 2.31 | 2.31 | 82 | 996.0 |
| 20260507163043 | 17 | 248 | 17.7 | 32.2 | 0.00 | 2.31 | 2.31 | 83 | 996.0 |
| 20260507162533 | 17 | 248 | 11.3 | 33.8 | 0.00 | 2.31 | 2.31 | 83 | 995.4 |
| 20260507162023 | 18 | 225 | 17.7 | 33.8 | 0.00 | 2.31 | 2.31 | 82 | 995.1 |
| 20260507161514 | 18 | 248 | 14.5 | 27.4 | 0.00 | 2.31 | 2.31 | 85 | 994.6 |
| 20260507161003 | 18 | 225 | 9.7 | 22.5 | 0.00 | 2.31 | 2.31 | 89 | 994.6 |
| 20260507160453 | 17 | 248 | 9.7 | 24.1 | 0.00 | 2.31 | 2.31 | 90 | 994.6 |
| 20260507155943 | 17 | 225 | 9.7 | 27.4 | 0.00 | 2.31 | 2.31 | 93 | 994.4 |
| 20260507155433 | 17 | 180 | 8.0 | 27.4 | 0.00 | 2.31 | 2.31 | 96 | 993.8 |